AD8BW Weather Reports


time (UTC)temp
C
wind
direction
speed
KPH
gust
KPH
rain 1hr
cm
rain 24hr
cm
rain mn
cm
humidity
%
barometer
mb
20260904093636 19 40 0.0 0.0 0.00 0.00 0.00 96 1014.1
20260904092634 19 40 0.0 0.0 0.00 0.00 0.00 96 1014.4
20260904091635 19 40 0.0 0.0 0.00 0.00 0.00 96 1014.8
20260904090638 19 40 0.0 0.0 0.00 0.00 0.00 96 1015.1
20260904085637 19 40 0.0 0.0 0.00 0.00 0.00 96 1015.1
20260904084633 19 40 0.0 0.0 0.00 0.00 0.00 96 1015.0
20260904083629 18 40 0.0 0.0 0.00 0.00 0.00 96 1015.0
20260904082631 19 40 0.0 0.0 0.00 0.00 0.00 96 1014.7
20260904081631 18 40 0.0 0.0 0.00 0.00 0.00 96 1014.7
20260904080635 18 40 0.0 0.0 0.00 0.00 0.00 96 1015.1
20260904075631 18 40 0.0 3.2 0.00 0.00 0.00 96 1015.0
20260904074627 18 40 0.0 6.4 0.00 0.00 0.00 96 1014.9
20260904073631 18 40 0.0 3.2 0.00 0.00 0.00 96 1014.7
20260904072629 19 40 0.0 6.4 0.00 0.00 0.00 96 1014.7
20260904071629 18 43 0.0 6.4 0.00 0.00 0.00 96 1014.6
20260904070627 18 43 0.0 6.4 0.00 0.00 0.00 96 1014.8
20260904065627 18 265 0.0 0.0 0.00 0.00 0.00 95 1015.1
20260904064629 18 265 0.0 0.0 0.00 0.00 0.00 95 1015.6
20260904063627 18 265 0.0 0.0 0.00 0.00 0.00 95 1015.5
20260904062629 18 265 0.0 0.0 0.00 0.00 0.00 95 1015.7
20260904061628 18 265 0.0 0.0 0.00 0.00 0.00 95 1015.7
20260904060630 18 265 0.0 0.0 0.00 0.00 0.00 95 1015.6
20260904055628 18 265 0.0 0.0 0.00 0.00 0.00 95 1015.7
20260904054622 18 265 0.0 0.0 0.00 0.00 0.00 95 1015.7
20260904053623 18 265 0.0 0.0 0.00 0.00 0.00 95 1015.8
20260904052624 18 265 0.0 0.0 0.00 0.00 0.00 95 1015.7
20260904051621 18 265 0.0 0.0 0.00 0.00 0.00 95 1015.7
20260904050622 18 265 0.0 0.0 0.00 0.00 0.00 95 1015.9
20260904045625 18 265 0.0 0.0 0.00 0.00 0.00 95 1015.8
20260904044624 19 265 0.0 0.0 0.00 0.00 0.00 95 1015.8
20260904043623 19 265 0.0 0.0 0.00 0.00 0.00 95 1015.8
20260904042621 19 265 0.0 0.0 0.00 0.00 0.00 95 1015.9
20260904041620 19 265 0.0 0.0 0.00 0.00 0.00 95 1015.7
20260904040622 19 265 0.0 0.0 0.00 0.00 0.00 95 1015.5
20260904035618 19 265 0.0 0.0 0.00 0.00 2.51 95 1015.5
20260904034621 19 265 0.0 0.0 0.00 0.00 2.51 95 1015.1
20260904033620 19 265 0.0 0.0 0.00 0.00 2.51 95 1015.0
20260904032620 19 265 0.0 0.0 0.00 0.00 2.51 95 1014.9
20260904031619 19 265 0.0 0.0 0.00 0.00 2.51 95 1014.9
20260904030619 20 265 0.0 0.0 0.00 0.00 2.51 95 1015.0
20260904025628 20 265 0.0 0.0 0.00 0.00 2.51 95 1014.8
20260904024631 20 265 0.0 0.0 0.00 0.00 2.51 95 1014.8
20260904023815 20 265 0.0 0.0 0.00 2.51 2.51 95 1014.8
20260904022814 20 265 0.0 0.0 0.00 2.51 2.51 95 1014.8
20260904021819 20 265 0.0 0.0 0.00 2.51 2.51 95 1014.8
20260904020815 20 265 0.0 0.0 0.00 2.51 2.51 95 1014.8
20260904015815 20 265 0.0 0.0 0.00 2.51 2.51 95 1014.8
20260904014817 20 265 0.0 0.0 0.00 2.51 2.51 95 1014.9
20260904013817 20 265 0.0 0.0 0.00 2.51 2.51 95 1015.1
20260904012812 20 265 0.0 0.0 0.00 2.51 2.51 95 1015.2
20260904011814 20 265 0.0 0.0 0.00 2.51 2.51 95 1015.1
20260904010816 20 265 0.0 0.0 0.00 2.51 2.51 95 1015.0
20260904005813 20 265 0.0 0.0 0.00 2.51 2.51 95 1014.8
20260904004815 20 265 0.0 0.0 0.00 2.51 2.51 95 1014.7
20260904003815 20 265 0.0 0.0 0.00 2.51 2.51 95 1014.2
20260904002814 20 265 0.0 0.0 0.00 2.51 2.51 95 1014.1
20260904001813 21 265 0.0 6.4 0.00 2.51 2.51 95 1014.1
20260904000812 21 195 6.4 11.3 0.00 2.51 2.51 95 1013.9
20260903235817 21 187 3.2 11.3 0.00 2.51 2.51 95 1013.9
20260903234817 21 188 3.2 17.7 0.00 2.51 2.51 95 1013.8
20260903233803 21 181 0.0 14.5 0.00 2.51 2.51 95 1013.8
20260903232807 21 196 3.2 14.5 0.00 2.51 2.51 95 1013.5
20260903231806 21 190 6.4 11.3 0.00 2.51 2.51 95 1013.3
20260903230806 21 176 0.0 6.4 0.00 2.51 2.51 95 1013.0
20260903225804 21 176 0.0 0.0 0.00 2.51 2.51 95 1013.1
20260903224806 21 176 0.0 0.0 0.00 2.51 2.51 95 1013.5
20260903223803 21 176 3.2 6.4 0.00 2.51 2.51 95 1013.7
20260903222808 21 176 3.2 6.4 0.00 2.51 2.51 95 1014.2
20260903221811 21 194 0.0 0.0 0.00 2.51 2.51 95 1014.1
20260903220802 21 194 0.0 6.4 0.00 2.51 2.51 95 1014.3
20260903215805 21 179 0.0 6.4 0.00 2.51 2.51 95 1014.2
20260903214805 21 159 0.0 6.4 0.00 2.51 2.51 95 1014.2
20260903213804 21 194 3.2 8.0 0.03 2.51 2.51 95 1014.3
20260903212805 21 178 0.0 8.0 0.05 2.51 2.51 95 1014.6
20260903211802 21 0 0.0 6.4 0.10 2.51 2.51 94 1014.4
20260903210805 21 30 0.0 8.0 0.10 2.51 2.51 94 1014.4
20260903205800 21 42 0.0 8.0 0.13 2.51 2.51 94 1014.4
20260903204801 21 16 3.2 8.0 0.30 2.51 2.51 94 1014.6
20260903203759 21 346 3.2 17.7 0.69 2.49 2.49 94 1014.8
20260903202802 20 355 3.2 8.0 0.66 2.46 2.46 93 1014.6
20260903201804 21 343 3.2 11.3 0.61 2.41 2.41 93 1015.0
20260903200759 21 317 6.4 14.5 0.61 2.41 2.41 93 1015.5
20260903195759 21 342 8.0 14.5 0.58 2.39 2.39 92 1014.8
20260903194805 21 350 11.3 25.7 0.41 2.21 2.21 92 1014.8
20260903193759 21 333 11.3 29.0 0.00 1.80 1.80 92 1014.9
20260903192801 22 298 0.0 11.3 0.00 1.80 1.80 93 1014.5
20260903191759 22 344 3.2 8.0 0.00 1.80 1.80 93 1013.8
20260903190755 22 294 3.2 14.5 0.00 1.80 1.80 93 1013.7
20260903185756 23 349 3.2 17.7 0.00 1.80 1.80 93 1014.2
20260903184753 23 184 0.0 6.4 0.00 1.80 1.80 94 1013.5
20260903183755 23 98 0.0 0.0 0.00 1.80 1.80 93 1013.5
20260903182753 23 98 0.0 0.0 0.00 1.80 1.80 94 1013.6
20260903181751 23 98 0.0 0.0 0.00 1.80 1.80 94 1013.5
20260903180755 23 98 0.0 0.0 0.00 1.80 1.80 94 1013.4
20260903175754 23 98 0.0 0.0 0.00 1.80 1.80 93 1013.4
20260903174752 23 98 0.0 0.0 0.00 1.80 1.80 94 1013.4
20260903173752 22 98 0.0 0.0 0.03 1.80 1.80 94 1013.3
20260903172756 22 98 0.0 0.0 0.51 1.80 1.80 94 1013.5
20260903171751 22 98 0.0 0.0 0.84 1.80 1.80 95 1013.4
20260903170751 22 98 0.0 0.0 0.84 1.80 1.80 94 1013.4
20260903165753 21 98 0.0 0.0 0.84 1.80 1.80 94 1013.5
20260903164756 21 345 0.0 3.2 0.84 1.80 1.80 94 1013.7
20260903163749 20 344 3.2 19.3 0.97 1.78 1.78 91 1013.7
20260903162752 20 203 8.0 43.5 0.84 1.30 1.35 89 1014.8
20260903161751 20 200 0.0 6.4 0.97 0.97 0.97 89 1014.9
20260903160751 20 217 0.0 8.0 0.97 0.97 0.97 87 1015.5
20260903155750 20 329 3.2 8.0 0.97 0.97 0.97 86 1015.5
20260903154750 21 156 11.3 29.0 0.97 0.97 0.97 84 1015.7
20260903153746 22 130 14.5 32.2 0.81 0.81 0.84 82 1016.2
20260903152751 24 282 8.0 51.5 0.46 0.46 0.46 82 1017.2
20260903151743 26 344 0.0 8.0 0.00 0.00 0.00 83 1016.3
20260903150743 26 198 0.0 0.0 0.00 0.00 0.00 81 1014.8
20260903145746 26 198 0.0 0.0 0.00 0.00 0.00 80 1014.4
20260903144745 26 198 0.0 0.0 0.00 0.00 0.00 80 1014.0
20260903143743 26 198 0.0 6.4 0.00 0.00 0.00 80 1014.1
20260903142741 26 182 0.0 11.3 0.00 0.00 0.00 80 1014.2
20260903141744 25 327 0.0 6.4 0.00 0.00 0.00 82 1014.1
20260903140740 25 327 0.0 3.2 0.00 0.00 0.00 84 1014.1
20260903135749 25 327 0.0 6.4 0.00 0.00 0.00 85 1014.0
20260903134744 25 316 0.0 6.4 0.00 0.00 0.00 85 1014.1
20260903133739 24 317 0.0 6.4 0.00 0.00 0.00 86 1014.3
20260903132736 23 193 0.0 6.4 0.00 0.00 0.00 89 1014.3
20260903131735 23 269 0.0 0.0 0.00 0.00 0.00 91 1014.2
20260903130736 22 233 0.0 0.0 0.00 0.00 0.00 93 1014.2
20260903125735 22 181 0.0 0.0 0.00 0.00 0.00 93 1014.3
20260903124737 22 181 0.0 0.0 0.00 0.00 0.00 92 1014.5
20260903123737 21 181 0.0 0.0 0.00 0.00 0.00 92 1014.4
20260903122736 21 181 0.0 0.0 0.00 0.00 0.00 92 1014.6
20260903121730 21 181 0.0 0.0 0.00 0.00 0.00 92 1014.6
20260903120731 21 181 0.0 0.0 0.00 0.00 0.00 91 1014.5
20260903115728 21 181 0.0 0.0 0.00 0.00 0.00 91 1014.6
20260903114728 21 181 0.0 0.0 0.00 0.00 0.00 91 1014.5
20260903113730 21 181 0.0 0.0 0.00 0.00 0.00 91 1014.5
20260903112729 21 181 3.2 6.4 0.00 0.00 0.00 91 1014.4
20260903111727 21 202 0.0 0.0 0.00 0.00 0.00 90 1014.3
20260903110727 21 202 0.0 0.0 0.00 0.00 0.00 90 1014.3
20260903105730 21 202 0.0 0.0 0.00 0.00 0.00 90 1014.2
20260903104729 21 202 0.0 0.0 0.00 0.00 0.00 90 1014.1
20260903103729 21 202 0.0 0.0 0.00 0.00 0.00 90 1013.9
20260903102728 21 202 0.0 0.0 0.00 0.00 0.00 90 1013.9
20260903101728 21 202 0.0 0.0 0.00 0.00 0.00 90 1013.8
20260903100729 21 202 0.0 0.0 0.00 0.00 0.00 90 1013.8
20260903095728 22 202 0.0 0.0 0.00 0.00 0.00 90 1013.9
20260903094727 22 202 0.0 0.0 0.00 0.00 0.00 90 1013.8